05.05.2024;18:00;69
05.05.2024;17:00;68
05.05.2024;16:00;69
05.05.2024;15:00;63
05.05.2024;14:00;62
05.05.2024;13:00;61
05.05.2024;12:00;56
05.05.2024;11:00;52
05.05.2024;10:00;50
05.05.2024;09:00;48
05.05.2024;08:00;46
05.05.2024;07:00;31
05.05.2024;06:00;37
05.05.2024;05:00;37
05.05.2024;04:00;39
05.05.2024;03:00;44
05.05.2024;02:00;54
05.05.2024;01:00;58
05.05.2024;00:00;55
04.05.2024;23:00;59
04.05.2024;22:00;62
04.05.2024;21:00;66
04.05.2024;20:00;82
04.05.2024;19:00;86
04.05.2024;18:00;85
04.05.2024;17:00;80
04.05.2024;16:00;77
04.05.2024;15:00;74
04.05.2024;14:00;73
04.05.2024;13:00;64
04.05.2024;12:00;66
04.05.2024;11:00;38
04.05.2024;10:00;16
04.05.2024;09:00;9
04.05.2024;08:00;6
04.05.2024;07:00;4
04.05.2024;06:00;7
04.05.2024;05:00;7
04.05.2024;04:00;12
04.05.2024;03:00;12
04.05.2024;02:00;10
04.05.2024;01:00;14
04.05.2024;00:00;17
03.05.2024;23:00;29
03.05.2024;22:00;50
03.05.2024;21:00;56
03.05.2024;20:00;64
03.05.2024;19:00;69
